Location: Kumla
(59.1265°N, 15.1401°E)
Time: 17:08:08
(UTC+01:00)

A-11 Canister half - Pass Details

Date: 11 December 2023
Orbit: 1512 x 1687 km, 47.2° (Epoch: 25 February)

Event Time Altitude Azimuth Distance (km) Brightness Sun altitude
Rises 02:43:14 0° 265° (W) 4,777 - -43.0°
Reaches altitude 10° 02:46:32 10° 258° (WSW) 3,817 - -42.6°
Maximum altitude 02:55:12 38° 195° (SSW) 2,319 - -41.7°
Exits shadow 02:59:55 25° 150° (SSE) 2,878 10.3 -41.1°
Drops below altitude 10° 03:04:06 10° 133° (SE) 3,924 11.3 -40.7°
Sets 03:07:34 0° 126° (SE) 4,925 12.0 -40.2°
